Temperature
20 19 19 19 19 19 18 18 18 18 18 18 18 18 18 18 17 18 17 17 17 17 17 17 17 17 17 17 17 17 17 17 17 18 18 17 17 17 17 16 16 16 16
20 19 19 19 19 18 18 18 18 18 18 18 18 18 17 17 17 17 17 17 17 17 17 17 17 17 17 17 17 17 17 17 17 17 17 17 17 16 16 16 16 16 16
19 19 19 19 18 18 18 18 18 18 18 17 17 17 17 17 17 17 17 17 17 17 17 17 17 17 17 17 17 17 17 17 16 16 17 17 16 16 16 16 16 16 16
19 19 19 18 18 18 18 18 17 17 17 17 17 17 17 17 17 17 17 17 17 17 16 16 16 16 16 16 16 16 16 16 16 16 16 16 16 16 16 16 16 16 15
19 19 18 18 18 18 18 17 17 17 17 17 17 17 17 16 16 16 16 16 16 16 16 16 16 16 16 16 16 16 16 16 16 16 16 16 16 16 15 15 15 15 15
18 18 18 18 18 17 17 17 17 17 17 17 16 16 16 16 16 16 16 16 16 16 16 16 16 16 16 16 16 16 16 16 15 15 16 16 15 15 15 15 15 15 15
18 18 17 17 17 17 17 17 16 16 16 16 16 16 16 16 16 16 16 16 15 15 15 16 15 16 15 15 16 16 16 16 15 15 15 15 15 15 15 15 15 14 14
18 17 17 17 17 16 16 16 16 16 16 16 16 16 16 15 16 16 16 16 15 15 15 15 15 15 15 15 15 15 15 15 15 15 15 15 15 15 15 14 14 14 14
17 17 16 16 16 16 16 16 16 15 15 15 15 15 15 15 15 15 15 15 15 15 15 15 15 15 15 15 15 15 15 15 15 15 15 15 15 14 14 14 14 14 14
16 16 16 16 16 15 15 15 15 15 15 15 15 15 14 15 15 15 15 14 14 14 14 14 14 14 14 15 14 14 14 14 14 14 14 14 14 14 14 14 13 14 14
16 16 16 15 15 15 15 15 15 14 14 14 14 14 14 14 14 14 14 14 14 14 14 14 14 14 14 14 14 14 14 14 14 14 14 14 14 14 14 13 13 13 13
15 15 15 15 15 15 14 14 14 14 14 14 14 14 14 14 13 13 13 13 13 13 13 13 13 13 13 14 14 13 14 13 13 13 13 13 13 13 13 13 13 13 13
15 14 14 14 14 14 14 14 14 14 14 14 14 14 13 13 13 13 13 13 13 13 13 13 13 13 13 13 13 13 13 13 13 13 13 13 13 13 13 12 12 12 12
14 14 14 14 14 14 13 13 13 13 13 13 13 13 13 13 13 12 12 12 12 12 12 12 12 12 12 12 12 12 12 12 12 12 12 12 12 12 12 12 12 12 12
13 13 13 13 13 13 13 13 12 12 12 12 12 12 12 12 12 12 12 12 12 12 11 11 12 12 12 12 12 12 12 12 12 12 12 12 12 12 12 11 11 11 11
13 13 13 13 13 12 12 12 12 12 12 12 12 11 11 12 12 12 11 11 11 11 11 11 11 11 11 12 12 12 12 11 11 11 11 11 11 11 11 11 11 11 11
12 12 12 12 12 12 12 12 12 12 11 11 11 11 11 11 11 11 11 11 11 11 11 11 11 11 11 11 11 11 11 11 11 11 11 11 11 11 10 10 10 10 10
12 12 12 12 12 12 12 12 11 11 11 11 11 11 11 11 10 10 10 10 10 10 10 10 11 11 11 11 11 11 11 11 10 10 10 10 10 10 10 10 10 10 10
11 12 11 11 11 11 11 11 11 11 11 11 11 11 10 10 10 10 10 10 10 10 10 10 10 10 10 10 10 10 10 10 10 9 10 10 10 10 10 10 10 9 9
11 11 11 11 11 11 11 11 11 11 11 11 10 10 10 10 10 10 10 9 10 10 10 10 10 9 9 9 9 9 9 9 9 9 9 9 9 9 9 9 9 9 9
11 11 10 10 11 10 10 10 10 10 10 10 10 10 9 9 9 9 9 9 9 9 9 9 9 9 9 9 9 9 9 9 8 8 8 8 8 8 8 9 9 9 9
10 10 10 10 10 10 10 10 10 10 10 10 10 10 9 9 9 9 9 9 9 8 8 8 8 8 8 8 8 8 8 8 8 8 8 8 8 8 8 8 8 8 8
10 10 10 10 10 9 9 9 9 9 9 9 9 9 9 9 9 8 8 8 8 8 8 8 8 8 8 8 8 8 7 7 7 7 7 7 7 7 7 7 7 7 8
10 10 9 9 9 9 9 9 9 9 9 9 9 9 9 8 8 8 8 8 8 7 7 7 7 7 7 7 7 7 7 7 7 7 6 6 7 7 7 7 7 7 7
9 9 9 9 9 9 9 9 9 9 9 8 8 8 8 8 8 8 7 7 7 7 7 7 7 7 7 7 7 7 7 7 6 6 6 6 6 6 6 6 6 6 6
9 9 9 9 9 9 9 8 8 8 8 8 8 8 7 7 7 7 7 7 7 7 7 7 7 6 6 6 6 6 6 6 6 6 6 6 6 5 6 6 6 6 6
Wind_Speed
7 6 5 5 5 5 5 5 5 5 5 6 6 6 6 6 6 5 6 6 6 7 7 7 8 8 7 6 6 6 6 6 7 6 4 2 3 5 3 4 5 6 6
7 6 6 5 5 5 5 5 5 5 5 5 5 6 6 6 6 6 6 6 6 7 7 8 8 7 7 7 7 7 7 6 7 8 5 4 5 5 4 5 5 5 4
6 6 6 5 5 6 5 5 5 4 4 4 5 5 6 6 6 6 6 6 7 7 7 8 8 8 8 7 7 7 7 7 6 7 7 4 4 4 5 6 5 3 5
6 5 5 5 5 5 4 4 4 4 4 4 4 4 5 5 5 6 6 6 7 7 7 7 8 8 8 8 7 8 7 8 7 7 7 5 5 4 4 5 5 4 4
4 4 4 3 3 3 3 3 3 4 4 3 4 4 4 4 5 5 6 7 6 7 7 7 7 6 6 6 7 7 7 7 7 7 6 5 5 4 5 5 5 4 4
3 3 3 3 3 3 2 2 3 3 3 3 4 4 5 4 2 3 5 6 6 7 7 7 7 7 7 7 8 8 7 8 7 7 7 7 6 6 5 5 5 5 4
4 4 3 3 3 3 3 2 3 3 3 4 4 5 5 4 3 4 5 7 8 7 7 8 8 6 6 7 7 9 9 9 9 9 9 8 7 6 6 7 6 6 5
3 3 3 3 3 3 3 3 3 3 3 4 5 5 5 5 4 5 5 8 8 8 8 8 8 7 6 5 7 7 7 8 8 9 8 9 8 6 6 7 6 6 5
2 2 2 2 2 3 3 3 3 4 4 5 5 5 6 5 4 5 6 7 7 8 7 7 7 7 3 4 7 8 8 7 6 6 7 6 5 4 5 5 5 5 5
2 2 2 2 3 3 3 4 4 4 5 5 5 5 5 5 2 3 6 6 7 7 6 6 5 6 5 4 7 8 8 7 6 4 5 6 6 6 7 7 6 6 6
1 1 2 2 3 3 3 3 4 4 4 4 5 4 4 4 2 2 4 5 6 7 6 6 5 3 5 5 7 8 7 7 6 5 5 5 5 5 6 6 6 6 6
1 1 1 2 3 2 3 3 4 4 4 4 4 5 4 3 2 2 4 6 7 8 7 7 5 2 5 7 7 7 7 7 6 5 5 5 4 4 4 4 5 6 5
1 1 2 2 2 3 3 3 4 4 4 4 4 5 4 3 2 3 4 6 7 7 6 6 6 6 7 8 8 8 7 6 5 5 6 5 4 4 4 3 4 5 5
1 2 3 3 3 3 3 4 4 4 4 4 5 5 5 4 4 4 4 4 5 6 6 6 8 8 8 7 5 6 6 6 6 6 6 5 4 4 4 4 4 4 4
2 3 3 3 3 3 3 2 3 3 3 5 5 6 6 6 5 6 6 5 5 5 6 6 6 5 5 5 5 5 5 5 5 5 5 4 4 4 4 4 4 5 5
3 3 3 3 3 3 3 2 0 2 1 2 4 6 5 5 5 6 6 6 7 6 5 6 6 6 6 6 6 5 5 5 5 5 5 5 5 5 4 4 4 5 5
4 3 3 4 3 3 3 3 4 3 5 5 5 5 6 7 6 6 6 6 7 6 5 6 6 6 6 6 6 5 5 4 4 4 5 5 5 5 5 5 5 5 5
4 3 4 4 4 4 4 4 4 5 5 4 4 5 6 6 7 7 7 5 5 4 5 6 6 6 6 6 5 5 4 4 4 4 5 5 5 5 5 6 5 5 5
4 4 3 4 4 4 4 5 5 6 6 6 5 3 3 5 6 6 5 4 5 6 5 6 6 6 5 5 5 5 5 4 4 5 5 5 5 6 6 6 5 4 5
4 4 5 5 5 5 5 5 5 6 6 6 5 5 4 5 5 4 4 5 6 6 6 6 5 5 5 5 5 5 5 4 4 4 5 5 5 5 6 6 5 4 5
4 4 6 6 5 5 5 5 6 6 6 5 5 3 4 6 6 6 5 5 5 6 5 5 5 5 4 4 4 5 5 4 4 4 5 5 5 5 6 6 5 5 4
5 5 5 5 5 5 5 5 6 6 6 6 6 4 3 6 6 6 6 6 5 5 5 5 5 5 4 4 5 5 5 4 4 4 5 5 5 6 6 5 5 5 5
5 6 5 5 5 5 6 6 6 6 6 6 6 5 5 5 5 5 6 6 5 5 5 5 5 5 5 5 5 5 6 5 5 5 5 6 6 6 5 5 6 6 6
5 6 6 5 5 5 6 5 5 6 6 6 5 5 5 5 5 6 6 5 5 5 5 5 6 6 7 7 6 6 6 5 6 6 7 7 7 6 6 5 6 6 5
5 5 5 5 5 5 5 6 6 6 5 5 5 5 5 5 5 5 5 5 5 5 6 6 6 6 7 8 8 6 3 3 5 7 6 7 7 7 6 6 6 6 6
4 4 4 4 5 5 5 5 5 5 5 5 5 5 5 5 5 5 5 5 5 5 6 6 6 7 8 7 6 3 2 3 4 6 7 6 6 6 6 6 7 7 7
Wind_Direction
198 201 204 205 212 221 231 240 244 249 245 244 246 248 247 247 246 245 251 252 250 252 254 248 248 260 260 259 253 254 254 256 264 269 260 248 244 268 267 265 253 241 218
191 195 205 205 208 216 221 229 237 243 248 246 246 247 248 248 247 248 254 258 255 256 257 260 259 256 252 258 259 254 254 256 259 266 265 252 232 240 246 254 257 248 248
190 196 201 204 210 219 223 227 235 242 249 255 253 249 249 253 254 253 254 258 259 262 264 264 265 263 259 257 257 259 257 253 252 260 260 257 252 240 238 244 247 255 253
186 190 201 210 216 222 228 232 238 243 246 249 252 250 253 257 262 262 260 259 260 263 266 268 269 266 265 265 258 257 259 262 255 257 263 258 248 237 239 248 243 230 243
182 187 196 205 208 217 227 231 234 240 243 244 251 255 259 258 260 265 265 261 260 263 264 266 267 272 285 277 276 271 264 260 259 256 258 255 250 240 246 249 250 241 228
168 179 183 195 205 210 221 232 237 239 245 243 245 250 256 262 271 277 270 273 269 264 265 267 264 252 253 248 261 271 274 263 261 261 258 258 255 250 250 252 252 246 246
184 194 194 205 214 217 222 222 233 239 244 251 255 255 256 257 247 246 253 266 267 266 267 270 273 271 254 262 249 240 246 245 250 259 265 266 263 250 247 244 242 248 258
196 204 211 222 228 231 233 236 239 242 244 248 253 259 266 264 234 241 249 252 263 265 264 265 268 274 275 277 271 264 257 248 240 243 257 265 267 260 241 244 245 239 241
206 218 229 229 230 236 246 253 257 255 253 253 257 261 267 271 237 234 249 262 263 267 267 267 270 269 274 282 270 269 267 262 238 234 251 265 282 264 249 246 237 238 247
237 241 250 241 238 248 256 263 265 260 262 266 270 268 270 275 238 230 250 264 270 270 264 260 250 263 278 261 265 269 268 269 271 247 236 235 236 226 215 228 236 242 253
293 278 277 266 251 255 259 264 270 270 275 278 279 277 273 273 233 217 253 267 277 277 277 274 270 213 247 253 261 267 274 282 272 259 247 240 231 225 220 223 235 245 252
317 292 285 278 273 273 271 274 277 279 271 271 273 274 270 262 261 243 238 254 278 280 279 280 288 267 254 250 254 267 273 268 262 260 256 251 244 238 232 229 233 244 253
330 308 298 291 280 281 273 274 269 267 277 284 288 288 290 291 267 222 238 250 262 270 280 292 296 279 260 249 239 241 244 250 254 254 254 254 254 253 246 235 234 236 240
295 290 287 288 286 281 278 283 287 294 297 298 298 297 299 296 301 304 294 274 258 264 277 270 252 249 249 257 249 237 241 247 252 257 260 263 262 255 247 244 240 233 234
285 287 288 285 284 279 282 304 299 319 323 305 303 302 302 301 324 334 308 302 297 293 293 281 279 270 261 258 251 248 248 245 248 254 259 260 262 261 255 245 242 239 239
267 270 279 285 286 280 273 272 133 239 233 266 282 289 300 304 306 310 304 298 294 290 286 280 280 278 274 272 266 259 252 253 256 256 255 258 260 260 259 255 252 245 242
272 274 274 279 281 280 283 283 284 253 218 219 231 248 260 277 286 287 287 287 278 265 268 276 282 283 282 280 278 274 268 265 263 266 266 263 263 264 262 258 251 247 246
263 253 261 265 271 274 276 279 282 286 288 286 241 212 230 249 259 265 271 278 279 264 277 281 282 284 287 286 286 285 286 287 279 272 273 270 268 267 264 260 253 252 251
265 261 263 269 267 269 273 277 278 281 283 286 290 269 228 245 242 246 249 273 283 285 284 285 287 288 290 290 291 291 290 285 286 287 287 282 275 269 267 267 260 240 244
259 267 267 268 268 270 272 278 282 282 284 288 289 294 298 291 286 280 269 280 284 286 287 288 290 290 288 285 285 285 283 278 276 281 289 291 292 284 271 264 258 249 244
273 254 239 259 267 276 281 285 287 288 290 292 292 303 303 290 289 293 292 287 288 291 291 291 289 289 288 284 280 276 278 280 282 284 286 288 288 287 285 276 259 246 244
271 267 264 267 269 270 277 281 283 284 288 289 291 287 256 278 291 296 296 294 292 293 295 291 289 290 293 289 284 279 275 275 277 279 280 281 285 286 287 283 277 259 240
266 266 264 264 265 263 264 269 272 277 283 288 291 294 293 297 297 297 300 301 300 297 295 291 289 288 288 285 284 278 274 275 276 277 278 278 278 278 277 270 267 266 255
262 265 265 262 264 269 270 272 274 278 284 290 294 295 297 297 297 300 300 300 301 302 301 296 291 290 291 290 287 281 284 295 290 275 270 272 271 268 262 259 259 260 259
262 264 267 268 265 267 274 279 280 281 284 288 291 294 295 297 297 299 299 298 299 298 297 295 291 289 289 288 288 289 335 329 296 288 272 265 263 260 256 254 254 256 249
277 280 279 277 273 272 274 279 283 285 285 285 286 289 294 297 298 298 297 296 298 299 299 297 295 298 297 291 298 335 4 303 287 285 277 263 260 259 259 257 256 255 252
Height
1536 1537 1539 1540 1541 1542 1542 1542 1542 1543 1543 1542 1542 1542 1543 1543 1543 1542 1543 1542 1542 1542 1541 1541 1540 1540 1540 1540 1540 1539 1539 1538 1538 1537 1537 1535 1534 1534 1534 1533 1533 1532 1532
1534 1535 1536 1537 1538 1538 1539 1539 1539 1539 1539 1539 1539 1539 1539 1539 1539 1539 1539 1539 1538 1538 1537 1537 1537 1537 1536 1535 1535 1535 1534 1534 1534 1533 1533 1532 1530 1530 1529 1529 1530 1530 1529
1531 1532 1533 1534 1535 1535 1536 1536 1536 1536 1536 1536 1536 1536 1536 1536 1535 1535 1535 1535 1535 1534 1534 1533 1533 1532 1531 1531 1530 1530 1530 1530 1530 1529 1529 1528 1527 1527 1526 1526 1526 1525 1525
1529 1530 1531 1532 1532 1533 1533 1533 1533 1533 1533 1533 1532 1532 1532 1532 1532 1532 1531 1531 1531 1530 1530 1529 1529 1528 1528 1527 1527 1526 1526 1526 1526 1525 1525 1524 1524 1523 1523 1523 1522 1522 1522
1527 1528 1529 1529 1530 1530 1530 1530 1530 1530 1530 1529 1529 1529 1528 1528 1528 1528 1528 1528 1527 1527 1526 1525 1524 1524 1523 1523 1523 1522 1522 1521 1521 1520 1520 1520 1520 1519 1519 1519 1519 1519 1518
1525 1526 1527 1527 1528 1528 1528 1527 1527 1527 1527 1526 1526 1525 1525 1525 1524 1524 1523 1523 1523 1523 1522 1521 1520 1519 1519 1518 1518 1518 1517 1517 1517 1516 1516 1516 1515 1516 1515 1515 1515 1515 1515
1523 1524 1525 1525 1525 1525 1525 1525 1524 1524 1523 1523 1522 1522 1521 1520 1520 1520 1519 1519 1519 1519 1517 1517 1517 1517 1515 1514 1513 1513 1512 1512 1512 1512 1512 1511 1511 1511 1511 1511 1511 1511 1511
1521 1522 1522 1523 1523 1522 1522 1522 1521 1521 1520 1520 1519 1519 1518 1517 1516 1516 1515 1515 1515 1514 1513 1512 1512 1512 1511 1510 1509 1509 1508 1507 1507 1507 1507 1507 1507 1507 1507 1507 1506 1506 1506
1519 1519 1519 1519 1519 1519 1519 1518 1517 1517 1517 1516 1516 1514 1514 1513 1513 1512 1511 1510 1510 1509 1508 1508 1507 1507 1506 1505 1505 1504 1503 1503 1502 1502 1502 1502 1502 1502 1502 1503 1503 1503 1503
1516 1516 1516 1516 1516 1516 1516 1515 1514 1514 1513 1513 1512 1511 1510 1509 1508 1508 1507 1507 1506 1505 1504 1503 1502 1502 1501 1501 1500 1500 1499 1498 1498 1497 1497 1497 1497 1497 1497 1498 1499 1499 1499
1514 1514 1513 1513 1513 1513 1512 1512 1511 1511 1510 1510 1508 1507 1506 1505 1504 1503 1503 1502 1502 1501 1500 1499 1498 1497 1496 1496 1495 1495 1494 1494 1494 1493 1493 1493 1492 1492 1493 1493 1494 1494 1495
1511 1511 1510 1510 1510 1510 1509 1508 1508 1507 1506 1506 1505 1504 1503 1502 1500 1499 1498 1498 1497 1496 1495 1495 1494 1492 1491 1491 1490 1490 1490 1490 1490 1489 1489 1489 1489 1489 1488 1488 1488 1488 1489
1508 1508 1507 1507 1507 1506 1506 1505 1505 1504 1503 1502 1501 1500 1500 1498 1497 1495 1494 1493 1492 1491 1490 1489 1488 1487 1486 1485 1485 1485 1485 1485 1485 1485 1485 1485 1484 1484 1484 1483 1483 1483 1483
1505 1505 1504 1504 1503 1503 1502 1502 1501 1500 1499 1499 1498 1497 1496 1495 1493 1492 1490 1489 1487 1486 1485 1484 1483 1482 1481 1481 1480 1480 1480 1480 1480 1480 1480 1480 1480 1480 1479 1479 1479 1479 1479
1502 1502 1502 1501 1500 1499 1499 1498 1498 1497 1496 1495 1494 1494 1492 1491 1489 1488 1487 1485 1484 1482 1480 1479 1479 1478 1477 1477 1476 1476 1476 1476 1476 1476 1476 1476 1475 1475 1475 1475 1474 1474 1474
1499 1499 1499 1499 1498 1497 1496 1495 1494 1494 1492 1491 1490 1489 1487 1486 1485 1483 1482 1481 1480 1478 1477 1475 1475 1474 1473 1473 1473 1472 1472 1471 1471 1471 1472 1472 1471 1471 1471 1471 1471 1470 1470
1496 1496 1496 1495 1495 1494 1493 1492 1491 1490 1489 1487 1486 1484 1483 1482 1481 1479 1478 1477 1476 1474 1473 1472 1471 1471 1470 1469 1468 1467 1468 1467 1467 1467 1467 1467 1467 1467 1467 1467 1467 1466 1466
1494 1493 1493 1492 1492 1491 1490 1489 1488 1487 1486 1484 1483 1481 1479 1478 1476 1475 1474 1473 1472 1471 1470 1469 1468 1467 1466 1465 1465 1464 1464 1464 1463 1463 1463 1462 1463 1463 1463 1463 1463 1462 1462
1491 1490 1490 1489 1488 1488 1487 1486 1485 1484 1482 1481 1479 1478 1476 1474 1473 1472 1470 1470 1469 1468 1467 1465 1465 1464 1463 1462 1461 1461 1460 1460 1459 1459 1458 1458 1458 1458 1458 1458 1458 1457 1458
1487 1486 1486 1485 1485 1484 1483 1482 1481 1480 1479 1477 1476 1474 1473 1471 1470 1468 1467 1466 1466 1465 1463 1462 1461 1460 1459 1458 1458 1457 1457 1456 1456 1456 1455 1454 1454 1454 1453 1454 1454 1453 1453
1485 1483 1482 1482 1481 1480 1480 1479 1477 1476 1475 1474 1472 1471 1469 1468 1467 1465 1464 1463 1462 1461 1460 1458 1457 1457 1456 1455 1454 1453 1453 1452 1452 1452 1451 1451 1450 1450 1449 1449 1448 1448 1448
1481 1480 1479 1478 1477 1476 1476 1474 1474 1472 1471 1470 1468 1467 1465 1464 1463 1461 1460 1459 1459 1457 1456 1455 1454 1453 1452 1451 1450 1450 1449 1448 1448 1448 1447 1446 1445 1445 1444 1444 1444 1444 1443
1476 1475 1475 1474 1473 1472 1471 1470 1470 1468 1467 1466 1465 1464 1462 1461 1459 1458 1457 1456 1455 1453 1453 1451 1450 1449 1449 1448 1446 1446 1445 1445 1444 1443 1443 1442 1441 1441 1440 1440 1440 1440 1440
1472 1471 1471 1470 1469 1468 1467 1466 1465 1465 1463 1462 1461 1460 1459 1457 1456 1455 1453 1452 1451 1450 1448 1447 1447 1446 1445 1444 1443 1442 1441 1440 1439 1439 1438 1437 1437 1436 1436 1435 1435 1436 1436
1468 1468 1467 1466 1465 1464 1463 1462 1461 1461 1460 1458 1457 1456 1455 1454 1453 1451 1450 1449 1447 1446 1445 1444 1443 1442 1441 1439 1438 1437 1436 1435 1434 1433 1432 1432 1432 1431 1431 1431 1431 1431 1432
1465 1464 1463 1462 1462 1461 1460 1459 1458 1457 1456 1455 1454 1453 1452 1451 1449 1448 1447 1445 1444 1443 1441 1440 1439 1438 1436 1435 1433 1432 1431 1430 1429 1428 1427 1427 1426 1426 1426 1426 1427 1427 1428